Change the Weather History Date:

Thursday, July 11, 2013

  Actual Average Record
Temperature  
Mean Temperature 69 °F 72 °F  
Max Temperature 86 °F 87 °F 104 °F (2002)
Min Temperature 52 °F 57 °F 42 °F (2008)
Degree Days  
Heating Degree Days 0 1  
Month to date heating degree days 0 11  
Since 1 June heating degree days 67 80  
Since 1 July heating degree days 0 11  
Cooling Degree Days 4 7  
Month to date cooling degree days 121 68  
Year to date cooling degree days 209 175  
Since 1 June cooling degree days 186 152  
Growing Degree Days 20 (Base 50)    
Moisture  
Dew Point 31 °F    
Average Humidity 33    
Maximum Humidity 57    
Minimum Humidity 9    
Precipitation  
Precipitation 0.00 in 0.03 in 0.42 in (1942)
Month to date precipitation T 0.34  
Year to date precipitation 5.84 8.09  
Sea Level Pressure  
Sea Level Pressure 29.78 in    
Wind  
Wind Speed 9 mph (SW)    
Max Wind Speed 21 mph    
Max Gust Speed 32 mph    
Visibility 10 miles    
Events      
T = Trace of Precipitation, MM = Missing Value Source: NWS Daily Summary

Daily Weather History Graph

Daily Weather History Graph

Search for Another Location

Airport or City:

Trip Planner

Search our weather history database for the weather conditions in past years. The results will help you decide how hot, cold, wet, or windy it might be!

Date:

Astronomy

Jul. 11, 2013 Rise Set
Actual Time 5:08 AM PDT 8:58 PM PDT
Civil Twilight 4:28 AM PDT 9:38 PM PDT
Nautical Twilight 3:32 AM PDT 10:33 PM PDT
Astronomical Twilight 2:08 AM PDT 11:56 PM PDT
Moon 8:52 AM PDT (7/11) 10:17 PM PDT (7/11)
Length of Visible Light 17h 10m
Length of Day
15h 49m
Waxing Crescent, 11% of the Moon is Illuminated
Jul 11
Waxing Crescent
Jul 15
First Quarter
Jul 22
Full
Jul 29
Last Quarter
Aug 6
New

Hourly Weather History & Observations

Time (PDT) Temp. Dew Point Humidity Pressure Visibility Wind Dir Wind Speed Gust Speed Precip Events Conditions
12:53 AM 62.1 °F 37.0 °F 39% 29.74 in 10.0 mi Calm Calm - N/A   Clear
1:53 AM 57.0 °F 39.0 °F 51% 29.75 in 10.0 mi North 4.6 mph - N/A   Clear
2:53 AM 62.1 °F 37.9 °F 41% 29.75 in 10.0 mi Calm Calm - N/A   Clear
3:53 AM 55.9 °F 39.9 °F 55% 29.76 in 10.0 mi SW 3.5 mph - N/A   Clear
4:53 AM 55.0 °F 39.0 °F 55% 29.78 in 10.0 mi West 4.6 mph - N/A   Clear
5:53 AM 57.0 °F 42.1 °F 57% 29.80 in 10.0 mi Calm Calm - N/A   Clear
6:53 AM 64.9 °F 44.1 °F 47% 29.81 in 10.0 mi West 3.5 mph - N/A   Clear
7:53 AM 69.1 °F 43.0 °F 39% 29.81 in 10.0 mi SSE 4.6 mph - N/A   Clear
8:53 AM 73.0 °F 36.0 °F 26% 29.80 in 10.0 mi South 3.5 mph - N/A   Clear
9:53 AM 75.9 °F 34.0 °F 22% 29.80 in 10.0 mi SE 8.1 mph - N/A   Clear
10:53 AM 79.0 °F 32.0 °F 18% 29.80 in 10.0 mi South 9.2 mph - N/A   Clear
11:53 AM 81.0 °F 28.9 °F 15% 29.79 in 10.0 mi South 15.0 mph 21.9 mph N/A   Clear
12:53 PM 82.9 °F 30.0 °F 15% 29.78 in 10.0 mi SSW 15.0 mph 27.6 mph N/A   Clear
1:53 PM 84.0 °F 27.0 °F 13% 29.77 in 10.0 mi SSW 18.4 mph 25.3 mph N/A   Clear
2:53 PM 84.9 °F 25.0 °F 11% 29.76 in 10.0 mi SW 16.1 mph 25.3 mph N/A   Clear
3:53 PM 84.9 °F 24.1 °F 11% 29.75 in 10.0 mi SSW 18.4 mph 27.6 mph N/A   Clear
4:53 PM 82.9 °F 21.0 °F 10% 29.77 in 10.0 mi WSW 13.8 mph 23.0 mph N/A   Clear
5:53 PM 80.1 °F 26.1 °F 14% 29.77 in 10.0 mi SW 10.4 mph - N/A   Clear
6:53 PM 81.0 °F 28.0 °F 14% 29.77 in 10.0 mi SW 8.1 mph - N/A   Clear
7:53 PM 77.0 °F 16.0 °F 10% 29.77 in 10.0 mi WNW 11.5 mph - N/A   Clear
8:53 PM 73.0 °F 16.0 °F 11% 29.77 in 10.0 mi West 10.4 mph - N/A   Clear
9:53 PM 68.0 °F 24.1 °F 19% 29.81 in 10.0 mi NW 10.4 mph - N/A   Clear
10:53 PM 69.1 °F 26.1 °F 20% 29.83 in 10.0 mi NNW 12.7 mph - N/A   Clear
11:53 PM 66.0 °F 35.1 °F 32% 29.85 in 10.0 mi North 13.8 mph - N/A   Clear